轨道通信卫星FM24星 (ORBCOMM FM24)

导读 | 星芒AI

ORBCOMM FM24 是一颗由 ORBCOMM 公司运营的低轨卫星,属于其全球物联网通信网络的一部分。该卫星主要用于提供远程机器到机器(M2M)通信服务,支持物流跟踪、资产监控和环境监测等应用。FM24 运行在 L 波段,具备双向通信能力,能够在全球范围内提供可靠的数据传输。该卫星是 ORBCOMM 第二代卫星星座的重要成员,旨在提升数据传输速度和系统稳定性,满足日益增长的物联网通信需求。

基本信息
目录编号:
25478
目录名称:
ORBCOMM FM 24
国际标识:
1998-053D
轨道中心:
EARTH
卫星名称:
轨道通信卫星FM24星
卫星全名:
轨道通信卫星FM24星 (ORBCOMM FM24)
卫星状态:
在轨 (已飞行9998 天)
发射日期:
1998-09-23 UTC
国别 :
(ORB)
星等 :
--
轨道信息
数据来源 国际轨道数据 AOE轨道数据
星历时间 2026-02-06T08:22:31+0800
13小时前
查看轨道信息
2026-02-04T16:00:00+0800
2天前
查看轨道信息
半长轴 7140.49km 7140.518km
偏心率 0.0001893 0.0002146
轨道倾角 45.006° 45.005°
近地点辐角 337.594° 333.914°
升交点赤经 239.822° 247.810°
平近点角 22.483° 303.720°
近地点 761.001km 760.848km
远地点 763.705km 763.914km
周期 100.081分钟 100.082分钟
每日圈数 14.388342 14.388258
详细信息
固有亮度:
8
最大亮度:
6.9
平衡模式:
三轴稳定
覆盖范围:
全球
运营商:
轨道通信公司
运营商所在国:
美国
制造商(研发单位):
轨道ATK公司
制造商所在国:
美国
使用方式:
暂无
卫星简介
轨道通信FM(Orbcomm FM)是一系列低地球轨道通信卫星,由美国卫星通信公司 Orbcomm运营。 截至2015年12月,已有63颗此类卫星绕地球运行。该卫星已退役。
2D轨道图
3D轨道图
轨道高度分析图
轨道倾角分析图
轨道综合分析图
查看轨道综合分析图